Mitchell, SD

4:13 PM CST on February 26, 2017 (GMT -0600)
Mitchell Municipal

Weather History for KMHE - January, 2013

Change the Weather History Date:

Wednesday, January 30, 2013

  Actual Average Record
Temperature  
Mean Temperature 11 °F 20 °F  
Max Temperature 22 °F 30 °F 62 °F (1989)
Min Temperature 0 °F 10 °F -26 °F (1966)
Degree Days  
Heating Degree Days 54 45  
Month to date heating degree days 1362 1388  
Since 1 July heating degree days 4212 4323  
Cooling Degree Days 0 0  
Month to date cooling degree days 0 0  
Year to date cooling degree days 0 0  
Moisture  
Dew Point 7 °F    
Average Humidity 77    
Maximum Humidity 86    
Minimum Humidity 66    
Precipitation  
Precipitation T in 0.00 in 1.03 in (2001)
Month to date precipitation 0.22 0.21  
Year to date precipitation 0.22 0.21  
Snow  
Snow T in - 10.00 in (2001)
Month to date snowfall 2.8  
Since 1 July snowfall 13.2  
Snow Depth 1.00 in    
Sea Level Pressure  
Sea Level Pressure 29.96 in    
Wind  
Wind Speed 17 mph (NNW)    
Max Wind Speed 28 mph    
Max Gust Speed 36 mph    
Visibility 6 miles    
Events Snow    
T = Trace of Precipitation, MM = Missing Value Source: NWS Daily Summary

Daily Weather History Graph

Daily Weather History Graph

Search for Another Location

Airport or City:

Trip Planner

Search our weather history database for the weather conditions in past years. The results will help you decide how hot, cold, wet, or windy it might be!

Date:

Astronomy

Jan. 30, 2013 Rise Set
Actual Time 7:50 AM CST 5:40 PM CST
Civil Twilight 7:20 AM CST 6:11 PM CST
Nautical Twilight 6:45 AM CST 6:45 PM CST
Astronomical Twilight 6:11 AM CST 7:19 PM CST
Moon 9:50 PM CST (1/30) 9:10 AM CST (1/30)
Length of Visible Light 10h 51m
Length of Day
9h 49m
Waning Gibbous, 87% of the Moon is Illuminated
Jan 30
Waning Gibbous
Feb 3
Last Quarter
Feb 10
New
Feb 17
First Quarter
Feb 25
Full

Hourly Weather History & Observations

Time (CST) Temp. Windchill Dew Point Humidity Pressure Visibility Wind Dir Wind Speed Gust Speed Precip Events Conditions
12:53 AM 21.9 °F 6.2 °F 16.0 °F 78% 29.96 in 10.0 mi NNW 21.9 mph 27.6 mph N/A   Overcast
1:53 AM 21.0 °F 6.2 °F 14.0 °F 74% 29.94 in 10.0 mi North 18.4 mph - 0.00 in   Overcast
2:25 AM 21.2 °F 6.8 °F 15.8 °F 80% 29.88 in 9.0 mi NNW 17.3 mph 26.5 mph 0.00 in Snow Light Snow
2:53 AM 21.0 °F 6.6 °F 16.0 °F 81% 29.94 in 7.0 mi NNW 17.3 mph - 0.00 in Snow Light Snow
3:02 AM 21.2 °F 6.8 °F 15.8 °F 80% 29.88 in 4.0 mi NNW 17.3 mph - 0.00 in Snow Light Snow
3:32 AM 21.2 °F 6.0 °F 17.6 °F 86% 29.89 in 3.0 mi NNW 19.6 mph - 0.00 in Snow Light Snow
3:40 AM 21.2 °F 6.8 °F 15.8 °F 80% 29.89 in 4.0 mi NNW 17.3 mph - 0.00 in Snow Light Snow
3:53 AM 21.0 °F 5.7 °F 16.0 °F 81% 29.94 in 4.0 mi NNW 19.6 mph 26.5 mph 0.00 in Snow Light Snow
4:04 AM 19.4 °F 2.8 °F 15.8 °F 86% 29.89 in 2.0 mi NNW 21.9 mph 28.8 mph 0.00 in Snow Light Snow
4:28 AM 19.4 °F 2.1 °F 15.8 °F 86% 29.89 in 1.5 mi NNW 24.2 mph 29.9 mph 0.00 in Snow Light Snow
4:33 AM 19.4 °F 2.8 °F 14.0 °F 80% 29.89 in 2.0 mi NNW 21.9 mph 28.8 mph 0.00 in Snow Light Snow
4:53 AM 19.9 °F 5.2 °F 14.0 °F 78% 29.96 in 4.0 mi NNW 17.3 mph - 0.00 in Snow Light Snow
5:10 AM 19.4 °F 4.1 °F 14.0 °F 80% 29.90 in 10.0 mi NNW 18.4 mph - 0.00 in   Overcast
5:53 AM 16.0 °F -1.7 °F 10.9 °F 81% 29.99 in 2.0 mi NNW 21.9 mph 29.9 mph 0.00 in Snow Light Snow
6:18 AM 15.8 °F -0.6 °F 10.4 °F 79% 29.92 in 4.0 mi NNW 18.4 mph 25.3 mph 0.00 in Snow Light Snow
6:29 AM 15.8 °F -3.1 °F 10.4 °F 79% 29.92 in 2.0 mi NNW 25.3 mph 31.1 mph 0.00 in Snow Light Snow
6:53 AM 15.1 °F -4.4 °F 9.0 °F 77% 29.99 in 1.2 mi NNW 26.5 mph 33.4 mph 0.00 in Snow Light Snow
7:16 AM 15.8 °F -1.5 °F 8.6 °F 73% 29.92 in 3.0 mi NNW 20.7 mph - 0.00 in Snow Light Snow
7:53 AM 14.0 °F -4.7 °F 8.1 °F 77% 30.00 in 3.0 mi NNW 23.0 mph 29.9 mph 0.00 in Snow Light Snow
8:18 AM 14.0 °F -4.7 °F 8.6 °F 79% 29.93 in 2.0 mi NNW 23.0 mph 29.9 mph 0.00 in Snow Light Snow
8:28 AM 12.2 °F -7.1 °F 8.6 °F 85% 29.93 in 1.2 mi NW 23.0 mph - 0.00 in Snow Light Snow
8:53 AM 12.0 °F -7.3 °F 6.1 °F 77% 30.00 in 1.0 mi NNW 23.0 mph 29.9 mph 0.00 in Snow Light Snow
9:06 AM 10.4 °F -9.1 °F 6.8 °F 85% 29.93 in 1.5 mi NNW 21.9 mph 29.9 mph 0.00 in Snow Light Snow
9:14 AM 10.4 °F -9.5 °F 5.0 °F 79% 29.93 in 3.0 mi NNW 23.0 mph - 0.00 in Snow Light Snow
9:53 AM 10.9 °F -7.0 °F 5.0 °F 77% 29.99 in 10.0 mi NNW 18.4 mph 24.2 mph 0.00 in   Overcast
10:53 AM 10.9 °F -7.5 °F 5.0 °F 77% 30.00 in 6.0 mi NW 19.6 mph - 0.00 in   Overcast
11:51 AM 12.2 °F -5.3 °F 5.0 °F 73% 29.92 in 5.0 mi NW 18.4 mph - 0.00 in Snow Light Snow
11:53 AM 10.9 °F -6.5 °F 5.0 °F 77% 29.99 in 6.0 mi NNW 17.3 mph - 0.00 in Snow Light Snow
12:02 PM 10.4 °F -8.2 °F 3.2 °F 73% 29.92 in 10.0 mi NNW 19.6 mph 25.3 mph 0.00 in   Overcast
12:53 PM 10.9 °F -6.5 °F 3.9 °F 73% 29.98 in 10.0 mi NW 17.3 mph - 0.00 in   Overcast
1:53 PM 10.0 °F -5.9 °F 3.0 °F 73% 29.97 in 7.0 mi NW 13.8 mph - N/A   Overcast
2:53 PM 10.0 °F -5.9 °F 3.0 °F 73% 29.96 in 10.0 mi NW 13.8 mph - N/A   Overcast
3:53 PM 9.0 °F -7.3 °F 1.9 °F 73% 29.97 in 10.0 mi NNW 13.8 mph - N/A   Overcast
4:53 PM 8.1 °F -9.0 °F 1.0 °F 73% 29.98 in 10.0 mi NNW 15.0 mph - N/A   Scattered Clouds
5:53 PM 6.1 °F -12.2 °F -0.9 °F 73% 29.99 in 10.0 mi NW 16.1 mph - N/A   Clear
6:53 PM 5.0 °F -12.3 °F -2.9 °F 70% 30.01 in 10.0 mi NW 13.8 mph - N/A   Clear
7:53 PM 3.9 °F -13.7 °F -2.9 °F 73% 30.01 in 10.0 mi NW 13.8 mph - N/A   Clear
8:53 PM 3.0 °F -14.1 °F -5.1 °F 69% 30.02 in 10.0 mi NW 12.7 mph - N/A   Clear
9:53 PM 1.0 °F -15.8 °F -6.0 °F 72% 30.04 in 10.0 mi NNW 11.5 mph - N/A   Clear
10:53 PM -0.0 °F -18.7 °F -8.0 °F 69% 30.05 in 10.0 mi NW 13.8 mph - N/A   Mostly Cloudy
11:53 PM -0.0 °F -20.1 °F -9.0 °F 66% 30.06 in 10.0 mi NW 16.1 mph - N/A   Partly Cloudy